Casa Grande, AZ

9:50 AM MST on December 11, 2019 (GMT -0700)
Casa Grande Municipal

Weather History for KCGZ - November, 2019

Change the Weather History Date:

Tuesday, November 12, 2019

  Actual Average Record
Temperature  
Mean Temperature 68 °F -  
Max Temperature 78 °F 72 °F 91 °F (1999)
Min Temperature 57 °F 45 °F 37 °F (2015)
Cooling Degree Days 2    
Growing Degree Days 18 (Base 50)    
Moisture  
Dew Point 36 °F    
Average Humidity 33    
Maximum Humidity 43    
Minimum Humidity 23    
Precipitation  
Precipitation 0.00 in - - ()
Sea Level Pressure  
Sea Level Pressure 30.04 in    
Wind  
Wind Speed 13 mph ()    
Max Wind Speed 25 mph    
Max Gust Speed 31 mph    
Visibility 10.0 miles    
Events      
Averages and records for this station are not official NWS values.
T = Trace of Precipitation, MM = Missing Value Source: Averaged Metar Reports

Daily Weather History Graph

Daily Weather History Graph

Search for Another Location

Airport or City:

Astronomy

Nov. 12, 2019 Rise Set
Actual Time 6:54 AM MST 5:27 PM MST
Civil Twilight 6:28 AM MST 5:53 PM MST
Nautical Twilight 5:58 AM MST 6:23 PM MST
Astronomical Twilight 5:29 AM MST 6:52 PM MST
Moon 5:55 PM MST (11/12) 6:52 AM MST (11/12)
Length of Visible Light 11h 24m
Length of Day
10h 32m
Full, 100% of the Moon is Illuminated
Nov 12
Full
Nov 19
Last Quarter
Nov 26
New
Dec 3
First Quarter
Dec 11
Full

Hourly Weather History & Observations

Time (MST) Temp. Dew Point Humidity Pressure Visibility Wind Dir Wind Speed Gust Speed Precip Events Conditions
12:56 AM 60.1 °F 33.1 °F 36% 30.02 in 10.0 mi Calm Calm - N/A   Clear
1:56 AM 57.0 °F 32.0 °F 39% 30.03 in 10.0 mi Calm Calm - N/A   Clear
2:56 AM 59.0 °F 36.0 °F 42% 30.04 in 10.0 mi NE 10.4 mph - N/A   Clear
3:56 AM 66.0 °F 42.1 °F 42% 30.04 in 10.0 mi ENE 11.5 mph - N/A   Clear
4:56 AM 64.9 °F 42.1 °F 43% 30.04 in 10.0 mi ENE 18.4 mph - N/A   Clear
5:56 AM 64.0 °F 39.9 °F 41% 30.06 in 10.0 mi ENE 24.2 mph - N/A   Clear
6:56 AM 62.1 °F 39.0 °F 43% 30.09 in 9.0 mi East 24.2 mph - N/A   Clear
7:56 AM 63.0 °F 37.9 °F 40% 30.11 in 10.0 mi ENE 24.2 mph 31.1 mph N/A   Clear
8:56 AM 64.9 °F 37.0 °F 36% 30.12 in 10.0 mi ENE 25.3 mph - N/A   Clear
9:56 AM 69.1 °F 37.0 °F 31% 30.13 in 10.0 mi ENE 19.6 mph - N/A   Clear
11:56 AM 73.9 °F 37.0 °F 26% 30.09 in 10.0 mi ENE 21.9 mph 28.8 mph N/A   Clear
12:56 PM 75.9 °F 37.0 °F 24% 30.05 in 10.0 mi ENE 20.7 mph 25.3 mph N/A   Clear
1:56 PM 78.1 °F 37.0 °F 23% 30.02 in 10.0 mi ENE 17.3 mph 24.2 mph N/A   Clear
2:56 PM 78.1 °F 37.0 °F 23% 30.01 in 10.0 mi ENE 18.4 mph - N/A   Clear
3:56 PM 77.0 °F 36.0 °F 23% 29.99 in 10.0 mi ENE 21.9 mph - N/A   Clear
4:56 PM 75.0 °F 36.0 °F 24% 29.99 in 10.0 mi ENE 17.3 mph 21.9 mph N/A   Clear
5:56 PM 72.0 °F 36.0 °F 27% 30.00 in 10.0 mi ENE 17.3 mph - N/A   Clear
6:56 PM 69.1 °F 35.1 °F 29% 30.01 in 10.0 mi ENE 17.3 mph - N/A   Clear
7:56 PM 66.9 °F 35.1 °F 31% 30.01 in 10.0 mi ENE 19.6 mph - N/A   Clear
8:56 PM 66.0 °F 34.0 °F 30% 30.02 in 10.0 mi ENE 18.4 mph - N/A   Clear
9:56 PM 64.0 °F 33.1 °F 31% 30.02 in 10.0 mi ENE 19.6 mph - N/A   Clear
10:56 PM 63.0 °F 33.1 °F 33% 30.02 in 10.0 mi ENE 16.1 mph - N/A   Clear
11:56 PM 63.0 °F 32.0 °F 31% 30.02 in 10.0 mi ENE 15.0 mph - N/A   Clear